[[{"header":{"parameterUnit":"m.s-1","parameterCategory":2,"la1":30.2991,"la2":30.254,"lo1":-89.0895,"lo2":-89.0444,"dy":0.0017,"dx":0.0017,"nx":28,"ny":28,"refTime":"2024-07-15T03:00:00:Z","depth":"0","parameterNumber":2,"parameterNumberName":"U-component_of_CURRENTS"},"data":[0,0,0,0,0,0,0,0,0,0,0,0,0,0,0,0,0,0,0,0,0,0,0,0,0,0,0,0,0,0,0,0,0,0,0,0,0,0,0,0,0,0,0,0,0,0,0,0,0,0,0,0,0,0,0,0,0,0,0.3099,0.31,0,0.3127,0.3127,0.3127,0.3096,0.3095,0.3094,0.3093,0.3082,0.3082,0.3083,0,0,0,0,0,0,0,0,0,0,0,0,0,0.3025,0.3026,0.3099,0.31,0.31,0.3127,0.3127,0.3127,0.3096,0.3095,0.3094,0.3092,0.3081,0.3082,0.3083,0,0,0,0,0,0,0,0,0,0,0,0,0,0.3053,0.3026,0.3099,0.309,0.309,0.3127,0.3127,0.3127,0.3096,0.3095,0.3093,0.3092,0.3081,0.3082,0.3083,0.3117,0,0,0.3086,0.3086,0,0,0,0,0,0,0,0,0.3051,0.3055,0.3091,0.3091,0.309,0.3109,0.3097,0.3123,0.3096,0.3091,0.3093,0.3091,0.309,0.309,0.3095,0.3116,0.3116,0.3086,0.3086,0.3087,0.3087,0,0,0,0,0,0,0,0.3049,0.3054,0.3107,0.3092,0.3091,0.3086,0.3088,0.3101,0.3095,0.3091,0.309,0.3097,0.3089,0.3094,0.3095,0.3115,0.3086,0.3086,0.3087,0.3087,0.3232,0.3235,0,0,0,0,0,0,0.3053,0.3052,0.3107,0.3109,0.307,0.3089,0.3091,0.3102,0.3096,0.3095,0.3099,0.3096,0.3094,0.3094,0.3094,0.3178,0.3087,0.3087,0.3088,0.3229,0.3233,0.3236,0,0,0,0,0,0,0.3051,0.3057,0.3106,0.3083,0.3089,0.3092,0.3104,0.3103,0.3112,0.3102,0.3099,0.3109,0.3092,0.3093,0.314,0.3175,0.3088,0.3089,0.3225,0.323,0.3235,0.3317,0,0,0,0,0,0,0.3049,0.3057,0.3064,0.3083,0.309,0.3131,0.3106,0.3105,0.312,0.3117,0.311,0.3107,0.3091,0.3139,0.3141,0.3175,0.3089,0.3221,0.3227,0.3233,0.331,0.3324,0.3336,0,0,0,0,0,0.3046,0.3062,0.3064,0.3071,0.3101,0.3132,0.3135,0.313,0.3122,0.3132,0.3151,0.3108,0.3179,0.3143,0.3144,0.3179,0.3218,0.3225,0.3233,0.3304,0.3322,0.3336,0,0,0,0,0,0,0.3026,0.3061,0.3064,0.3087,0.311,0.3127,0.3135,0.3142,0.3164,0.3161,0.3151,0.3152,0.3204,0.3194,0.3154,0.3245,0.3191,0.3199,0.3246,0.3262,0.3275,0.3256,0.309,0,0,0,0,0,0.3029,0.3051,0.3082,0.3099,0.3112,0.3128,0.314,0.3144,0.3167,0.3174,0.3178,0.3198,0.3238,0.325,0.327,0.3321,0.335,0.3348,0.3361,0.3372,0.3362,0.3471,0.3492,0.3261,0.3261,0.3261,0,0,0.3024,0.3048,0.3058,0.3097,0.311,0.3142,0.313,0.3154,0.3185,0.3172,0.3213,0.3239,0.3265,0.3323,0.3346,0.3316,0.3462,0.3381,0.339,0.3373,0.3481,0.3503,0.3523,0.3266,0.3265,0.3264,0,0,0.3031,0.3048,0.3072,0.31,0.3133,0.315,0.3163,0.3194,0.3207,0.3264,0.3274,0.3332,0.3369,0.3406,0.343,0.3532,0.3529,0.3539,0.3584,0.3692,0.3711,0.3728,0.3825,0.385,0.3544,0.3544,0.3544,0,0.3021,0.3058,0.3082,0.3117,0.3139,0.3159,0.3191,0.3221,0.3266,0.3294,0.3283,0.3398,0.3411,0.3511,0.3547,0.3557,0.3617,0.3517,0.3707,0.3725,0.3741,0.3836,0.3862,0.3549,0.3548,0.3548,0.3547,0,0.3057,0.3083,0.3099,0.3152,0.3182,0.3209,0.3257,0.3292,0.3315,0.3351,0.3445,0.3492,0.3557,0.3586,0.3593,0.3722,0.373,0.3712,0.366,0.3769,0.3863,0.3889,0.3556,0.3554,0.3553,0.3552,0,0,0.3031,0.3108,0.3109,0.313,0.32,0.322,0.3289,0.3353,0.3399,0.3461,0.3535,0.3629,0.3654,0.3685,0.3719,0.3809,0.3985,0.381,0.3813,0.3892,0.4235,0.4277,0.4309,0.4009,0.4013,0.4017,0.4265,0,0.3043,0.3097,0.3143,0.3189,0.3216,0.3269,0.3327,0.3393,0.3453,0.3531,0.3612,0.3693,0.3696,0.3741,0.3838,0.3942,0.4053,0.3919,0.4127,0.4133,0.4147,0.434,0.4235,0.4451,0.429,0.4294,0.4298,0,0.3059,0.3091,0.3135,0.3198,0.3215,0.3252,0.3336,0.3395,0.352,0.357,0.3676,0.3744,0.3893,0.3871,0.4119,0.4039,0.4144,0.4223,0.4234,0.4253,0.4224,0.4312,0.4504,0.4347,0.4337,0.4334,0.4331,0,0.301,0.308,0.3105,0.313,0.3214,0.3243,0.3289,0.3401,0.3455,0.3602,0.3668,0.384,0.3925,0.4098,0.4262,0.4213,0.4531,0.4481,0.4625,0.4628,0.4566,0.4556,0.4612,0.4672,0.4671,0.4671,0.467,0,0.3001,0.3018,0.3077,0.309,0.3124,0.3198,0.3255,0.3331,0.3449,0.3536,0.3677,0.3795,0.3987,0.4184,0.4324,0.4578,0.4596,0.468,0.4718,0.4596,0.4588,0.4466,0.4322,0.468,0.4678,0.4676,0.4675,0,0.295,0.299,0.3017,0.3084,0.3101,0.3121,0.3208,0.3257,0.338,0.3505,0.3561,0.3788,0.4072,0.4283,0.4572,0.4656,0.4766,0.4963,0.4807,0.4823,0.4794,0.4658,0.4594,0.4475,0.518,0.5183,0.5185,0,0.2933,0.294,0.2988,0.2989,0.3014,0.3053,0.3087,0.3203,0.3267,0.3516,0.3579,0.3879,0.4088,0.4534,0.4787,0.5094,0.4881,0.513,0.5016,0.4828,0.4704,0.4456,0.434,0.4978,0.4979,0.4979,0.4979,0,0.289,0.2902,0.2915,0.2926,0.2942,0.2972,0.3033,0.3072,0.324,0.3373,0.3592,0.3783,0.4241,0.4526,0.492,0.5092,0.4859,0.515,0.4997,0.4605,0.4293,0.4184,0.4762,0.4983,0.4983,0.4983,0.4982,0.4982,0.2842,0.284,0.2851,0.2855,0.2865,0.2885,0.2897,0.3,0.3112,0.3314,0.3535,0.3803,0.4206,0.4774,0.493,0.5071,0.4942,0.498,0.4855,0.4642,0.4437,0.5035,0.5264,0.5265,0.5266,0.5267,0.5268,0,0.2786,0.2788,0.2782,0.2776,0.2751,0.2796,0.2855,0.288,0.2995,0.3235,0.3442,0.3852,0.4178,0.4509,0.4815,0.4754,0.4567,0.4635,0.4222,0.4144,0.4753,0.4654,0.4708,0.4708,0.4708,0.4709,0.4709,0.4709,0.2753,0.2729,0.2731,0.2664,0.2655,0.2641,0.2662,0.2736,0.2881,0.3107,0.3328,0.3557,0.3912,0.4231,0.4321,0.4314,0.3971,0.3866,0.378,0.416,0.4179,0.4197,0.4075,0.4006,0.4005,0.3076,0.3068,0.3062]},{"header":{"parameterUnit":"m.s-1","parameterCategory":2,"la1":30.2991,"la2":30.254,"lo1":-89.0895,"lo2":-89.0444,"dy":0.0017,"dx":0.0017,"nx":28,"ny":28,"refTime":"2024-07-15T03:00:00:Z","depth":"0","parameterNumber":3,"parameterNumberName":"V-component_of_CURRENTS"},"data":[0,0,0,0,0,0,0,0,0,0,0,0,0,0,0,0,0,0,0,0,0,0,0,0,0,0,0,0,0,0,0,0,0,0,0,0,0,0,0,0,0,0,0,0,0,0,0,0,0,0,0,0,0,0,0,0,0,0,-0.0053,-0.0054,0,-0.0152,-0.0153,-0.0154,-0.0248,-0.0249,-0.025,-0.0251,-0.0382,-0.0384,-0.0386,0,0,0,0,0,0,0,0,0,0,0,0,0,0.0029,0.0029,-0.0053,-0.0054,-0.0055,-0.0152,-0.0153,-0.0154,-0.0247,-0.0249,-0.025,-0.0252,-0.0381,-0.0384,-0.0387,0,0,0,0,0,0,0,0,0,0,0,0,0,-0.003,0.0028,-0.0052,-0.0115,-0.0121,-0.0151,-0.0153,-0.0154,-0.0247,-0.0249,-0.0251,-0.0253,-0.038,-0.0384,-0.0387,-0.0369,0,0,-0.0397,-0.0399,0,0,0,0,0,0,0,0,-0.0027,-0.0033,-0.0104,-0.011,-0.0118,-0.0191,-0.0172,-0.0228,-0.0246,-0.0198,-0.0251,-0.0254,-0.032,-0.0329,-0.0341,-0.0375,-0.038,-0.0398,-0.04,-0.0401,-0.0402,0,0,0,0,0,0,0,-0.0022,-0.0029,-0.0091,-0.0105,-0.0114,-0.0147,-0.0157,-0.0183,-0.0246,-0.0202,-0.021,-0.0222,-0.0324,-0.0337,-0.0344,-0.0382,-0.0397,-0.04,-0.0403,-0.0404,-0.0425,-0.0424,0,0,0,0,0,0,-0.0009,-0.0025,-0.0087,-0.0094,-0.0078,-0.0146,-0.0158,-0.0164,-0.0246,-0.026,-0.022,-0.0226,-0.033,-0.034,-0.0349,-0.0319,-0.0401,-0.0404,-0.0406,-0.0426,-0.0425,-0.0423,0,0,0,0,0,0,-0.0007,-0.0014,-0.0084,-0.0063,-0.0075,-0.0146,-0.0152,-0.0165,-0.0182,-0.0259,-0.0275,-0.0225,-0.0332,-0.0345,-0.0363,-0.0325,-0.0406,-0.0409,-0.0428,-0.0426,-0.0424,-0.0267,0,0,0,0,0,0,-0.0004,-0.0012,-0.0003,-0.0062,-0.0076,-0.0083,-0.0151,-0.0166,-0.0187,-0.0196,-0.0267,-0.0282,-0.0335,-0.0358,-0.0367,-0.0332,-0.0411,-0.043,-0.0427,-0.0425,-0.0274,-0.0259,-0.0247,0,0,0,0,0,-0.0001,0.0022,-0.0002,-0.0009,-0.0064,-0.0082,-0.009,-0.0148,-0.0185,-0.0173,-0.0227,-0.028,-0.0347,-0.0359,-0.037,-0.0335,-0.0431,-0.0428,-0.0425,-0.028,-0.0262,-0.0247,0,0,0,0,0,0,0.0068,0.0013,-0.0015,-0.0009,-0.0036,-0.0098,-0.0095,-0.0135,-0.0167,-0.0181,-0.0257,-0.0273,-0.0278,-0.0326,-0.0337,-0.0335,-0.0399,-0.0398,-0.0285,-0.0269,-0.0256,-0.0237,-0.0414,0,0,0,0,0,0.0088,0.0086,0.0033,0.0042,0.003,-0.0029,-0.0043,-0.0081,-0.0123,-0.0141,-0.0191,-0.0242,-0.027,-0.0286,-0.0323,-0.0313,-0.0355,-0.03,-0.0287,-0.0275,-0.0268,-0.0292,-0.0279,-0.0412,-0.0412,-0.0412,0,0,0.0116,0.0087,0.0085,0.0056,0.0027,0.003,-0.0041,-0.0053,-0.0047,-0.0147,-0.0147,-0.0197,-0.0259,-0.0253,-0.0259,-0.0289,-0.0256,-0.0271,-0.026,-0.0259,-0.0287,-0.0274,-0.0262,-0.041,-0.041,-0.0411,0,0,0.0171,0.0149,0.0162,0.0147,0.0111,0.0081,0.0083,0.0032,0.0015,0.0009,-0.006,-0.0082,-0.0131,-0.0159,-0.0182,-0.0115,-0.0188,-0.0131,-0.0042,-0.0064,-0.0053,-0.0044,-0.0062,-0.0056,-0.012,-0.0119,-0.0119,0,0.0206,0.0213,0.0168,0.0179,0.0176,0.0112,0.0134,0.0118,0.007,0.007,0.0027,-0.003,-0.0083,-0.007,-0.0052,-0.0082,-0.0111,-0.0093,-0.0044,-0.0037,-0.003,-0.0052,-0.0047,-0.0111,-0.0112,-0.0113,-0.0114,0,0.0263,0.0272,0.0285,0.0275,0.0276,0.0286,0.0255,0.0258,0.0224,0.0199,0.0198,0.0131,0.0093,0.0083,0.0034,0.0064,0.0024,-0.0025,-0.0079,-0.0007,-0.0035,-0.0033,-0.01,-0.0103,-0.0105,-0.0107,0,0,0.0324,0.0323,0.0327,0.0342,0.0326,0.0333,0.0362,0.0369,0.0389,0.035,0.0377,0.0331,0.0281,0.0252,0.0193,0.0181,0.0206,0.0108,0.0103,0.0101,0.0163,0.0141,0.014,0.0166,0.0167,0.0168,0.0132,0,0.0379,0.0421,0.0409,0.0464,0.0483,0.0456,0.0494,0.0495,0.0479,0.0493,0.0441,0.0436,0.0351,0.0338,0.0314,0.023,0.0216,0.0221,0.0082,0.0078,0.0059,0.0144,0.0161,0.013,0.0133,0.0133,0.0133,0,0.0433,0.0453,0.0511,0.0553,0.0562,0.0593,0.0634,0.0658,0.0664,0.0653,0.0635,0.0579,0.0562,0.0472,0.038,0.0386,0.0288,0.0221,0.0216,0.0141,0.0061,0.0052,0.0133,-0.01,0.0135,0.0135,0.0135,0,0.0482,0.0529,0.058,0.0591,0.0627,0.0663,0.0689,0.0707,0.0739,0.0754,0.0772,0.0722,0.0701,0.0591,0.0444,0.0411,0.0339,0.0267,0.0159,0.0156,0.0114,0.0106,-0.0038,0.0202,0.0202,0.0202,0.0202,0,0.0535,0.0576,0.061,0.0634,0.0712,0.0723,0.08,0.0816,0.0854,0.0913,0.0854,0.0887,0.0728,0.0659,0.0507,0.0358,0.0381,0.0197,0.0155,0.0171,0.0168,-0.0085,-0.0207,0.02,0.0201,0.0201,0.0201,0,0.0568,0.0588,0.0648,0.0704,0.073,0.0784,0.0864,0.0918,0.095,0.1026,0.104,0.1015,0.0944,0.0781,0.0612,0.0445,0.0188,0.0232,0.0268,0.0231,-0.01,-0.0212,-0.0359,-0.0442,0.0111,0.011,0.0109,0,0.0584,0.0617,0.0691,0.0735,0.0763,0.0842,0.0902,0.0955,0.1018,0.111,0.1158,0.1131,0.1133,0.0896,0.0631,0.0392,0.0184,0.0202,0.0135,-0.0093,-0.0251,-0.031,-0.0374,0.0145,0.0145,0.0145,0.0145,0,0.0617,0.0641,0.0688,0.0775,0.0847,0.0937,0.1029,0.1094,0.1178,0.1267,0.1372,0.1395,0.1193,0.1003,0.0674,0.0464,0.0061,0.019,-0.0056,-0.0231,-0.0296,-0.0403,0.0136,0.0143,0.0144,0.0144,0.0144,0.0144,0.0638,0.0678,0.0743,0.0827,0.0914,0.1035,0.1128,0.1247,0.1388,0.1581,0.1567,0.1701,0.135,0.093,0.06,0.0015,0.0032,-0.0176,-0.0289,-0.0326,-0.0417,0.0126,0.0085,0.0085,0.0085,0.0085,0.0085,0,0.0666,0.0718,0.0796,0.0907,0.1011,0.1056,0.1219,0.1344,0.1543,0.1765,0.1903,0.1861,0.141,0.0895,0.0122,-0.0359,-0.0523,-0.0631,-0.0735,-0.0776,-0.0304,-0.0317,-0.0436,-0.0435,-0.0435,-0.0435,-0.0435,-0.0434,0.0688,0.0757,0.0799,0.0968,0.106,0.1228,0.1336,0.1543,0.174,0.206,0.2228,0.2298,0.1839,0.0421,-0.0617,-0.0868,-0.1169,-0.122,-0.1384,-0.1114,-0.1081,-0.105,-0.1093,-0.1372,-0.1373,-0.1782,-0.1787,-0.179]}],[{"header":{"parameterUnit":"m.s-1","parameterCategory":2,"la1":30.2991,"la2":30.254,"lo1":-89.0895,"lo2":-89.0444,"dy":0.0017,"dx":0.0017,"nx":28,"ny":28,"refTime":"2024-07-15T03:00:00:Z","depth":"2","parameterNumber":2,"parameterNumberName":"U-component_of_CURRENTS"},"data":[0,0,0,0,0,0,0,0,0,0,0,0,0,0,0,0,0,0,0,0,0,0,0,0,0,0,0,0,0,0,0,0,0,0,0,0,0,0,0,0,0,0,0,0,0,0,0,0,0,0,0,0,0,0,0,0,0,0,0.1753,0.1754,0,0.1881,0.1883,0.1884,0.1906,0.1905,0.1904,0.1904,0.1935,0.1937,0.1939,0,0,0,0,0,0,0,0,0,0,0,0,0,0.1552,0.1556,0.1753,0.1754,0.1756,0.1881,0.1883,0.1884,0.1907,0.1905,0.1904,0.1903,0.1935,0.1937,0.1939,0,0,0,0,0,0,0,0,0,0,0,0,0,0.1655,0.1557,0.1752,0.1783,0.1787,0.1881,0.1883,0.1885,0.1907,0.1905,0.1904,0.1902,0.1934,0.1937,0.1939,0.1986,0,0,0.1948,0.1949,0,0,0,0,0,0,0,0,0.1649,0.1662,0.1777,0.1781,0.1786,0.1877,0.1824,0.1914,0.1907,0.186,0.1903,0.1902,0.1909,0.1913,0.1941,0.1988,0.1989,0.1948,0.1949,0.1951,0.1951,0,0,0,0,0,0,0,0.1642,0.1657,0.1803,0.1779,0.1784,0.1799,0.1812,0.1842,0.1889,0.1864,0.1867,0.1883,0.191,0.1939,0.1942,0.1989,0.1948,0.195,0.1952,0.1953,0.2117,0.212,0,0,0,0,0,0,0.1629,0.1651,0.1799,0.1807,0.1713,0.1804,0.1818,0.1849,0.1891,0.1897,0.1884,0.1883,0.1935,0.1939,0.1943,0.203,0.1951,0.1953,0.1955,0.2115,0.2118,0.2121,0,0,0,0,0,0,0.1625,0.1642,0.1794,0.1731,0.1751,0.1809,0.1843,0.1852,0.1885,0.1907,0.191,0.1908,0.1934,0.1939,0.1991,0.2029,0.1954,0.1957,0.2111,0.2116,0.2119,0.2184,0,0,0,0,0,0,0.1619,0.164,0.1665,0.1731,0.1755,0.1854,0.1845,0.1856,0.1898,0.1898,0.1929,0.193,0.1933,0.1988,0.1994,0.2032,0.1959,0.2108,0.2113,0.2118,0.2178,0.219,0.22,0,0,0,0,0,0.1611,0.1649,0.1666,0.1684,0.1786,0.1855,0.1869,0.1903,0.19,0.1925,0.1954,0.193,0.2025,0.1993,0.1999,0.2038,0.2105,0.2112,0.2118,0.2174,0.2187,0.2199,0,0,0,0,0,0,0.1573,0.1657,0.1677,0.1738,0.1794,0.1859,0.1894,0.1912,0.1959,0.1959,0.1967,0.1973,0.2038,0.2035,0.1999,0.2104,0.2061,0.2069,0.2101,0.2114,0.2124,0.2136,0.1961,0,0,0,0,0,0.1579,0.1634,0.1703,0.1755,0.1784,0.1841,0.1876,0.1899,0.1946,0.1965,0.1987,0.2021,0.2072,0.2087,0.2127,0.218,0.2218,0.2211,0.2221,0.223,0.2247,0.235,0.2371,0.2141,0.2141,0.2141,0,0,0.1578,0.1634,0.1663,0.1751,0.18,0.1853,0.1859,0.1918,0.1962,0.1961,0.2027,0.2062,0.2099,0.2168,0.2194,0.2164,0.232,0.2238,0.2245,0.2257,0.2359,0.2381,0.2401,0.2146,0.2145,0.2144,0,0,0.1597,0.1656,0.17,0.1752,0.1829,0.1871,0.1888,0.1958,0.1991,0.2059,0.2082,0.2145,0.2199,0.2248,0.2276,0.2371,0.2381,0.2376,0.2428,0.2528,0.2548,0.2565,0.2654,0.2679,0.2371,0.2371,0.2371,0,0.1587,0.1662,0.1722,0.1775,0.1824,0.1878,0.1929,0.198,0.2056,0.2103,0.2081,0.2223,0.2244,0.2355,0.239,0.2394,0.245,0.2371,0.2542,0.256,0.2577,0.2664,0.269,0.2375,0.2374,0.2374,0.2373,0,0.1633,0.1696,0.173,0.1819,0.1877,0.1935,0.2009,0.2066,0.2106,0.2162,0.2275,0.2322,0.2406,0.2425,0.2436,0.2574,0.2576,0.255,0.2505,0.2604,0.2689,0.2716,0.238,0.2379,0.2378,0.2377,0,0,0.1606,0.1734,0.1747,0.1795,0.1907,0.1956,0.2048,0.2155,0.2226,0.2293,0.2396,0.2491,0.2526,0.2563,0.259,0.2667,0.2835,0.2662,0.2666,0.2743,0.3067,0.2866,0.2875,0.2842,0.2847,0.2851,0.3082,0,0.1625,0.1715,0.1787,0.188,0.1935,0.2025,0.2109,0.221,0.2296,0.2405,0.2486,0.259,0.2575,0.2627,0.271,0.2817,0.2908,0.2775,0.2966,0.2972,0.2774,0.2899,0.2626,0.279,0.3108,0.3112,0.3115,0,0.1648,0.1708,0.1794,0.1922,0.1956,0.202,0.2173,0.226,0.2428,0.2498,0.2618,0.2684,0.2841,0.279,0.3025,0.2946,0.3022,0.308,0.309,0.2896,0.2819,0.2742,0.2827,0.316,0.3156,0.3153,0.315,0,0.1599,0.172,0.1788,0.1831,0.1975,0.2038,0.2127,0.2289,0.2384,0.2573,0.2664,0.2831,0.2939,0.3064,0.318,0.3133,0.3415,0.3359,0.3252,0.324,0.3039,0.2998,0.3527,0.3527,0.3526,0.3525,0.3525,0,0.1603,0.1658,0.1767,0.1805,0.1896,0.2013,0.2136,0.2252,0.2429,0.2559,0.2712,0.2836,0.3017,0.3179,0.3256,0.334,0.3487,0.3296,0.3294,0.3051,0.301,0.334,0.3316,0.3534,0.3532,0.353,0.3529,0,0.1561,0.1631,0.1708,0.1837,0.1878,0.1948,0.2123,0.2215,0.2399,0.2574,0.2644,0.2902,0.3116,0.3263,0.3489,0.3425,0.3526,0.3514,0.3202,0.3153,0.327,0.3247,0.3432,0.3427,0.3423,0.3419,0.3417,0,0.1556,0.1587,0.1702,0.1739,0.1802,0.1911,0.1991,0.2178,0.2283,0.2598,0.2679,0.295,0.3082,0.3324,0.3286,0.3366,0.352,0.3148,0.297,0.3286,0.3267,0.325,0.3232,0.2769,0.2761,0.2754,0.2749,0,0.1538,0.1574,0.1631,0.1696,0.1768,0.1855,0.1984,0.2059,0.2296,0.2459,0.27,0.2831,0.2994,0.2941,0.2988,0.2989,0.3095,0.3005,0.3499,0.2777,0.2663,0.2641,0.2647,0.269,0.2696,0.27,0.2704,0.2706,0.152,0.1543,0.1603,0.1665,0.1727,0.1801,0.1864,0.2002,0.2163,0.2367,0.254,0.2637,0.2632,0.2534,0.2526,0.2529,0.2689,0.2614,0.2636,0.2664,0.2488,0.2366,0.2308,0.2312,0.2315,0.2317,0.232,0,0.1506,0.1534,0.1572,0.1638,0.1666,0.1734,0.1857,0.1902,0.2047,0.2171,0.2302,0.2067,0.2036,0.2143,0.1987,0.1934,0.1932,0.195,0.1955,0.201,0.2061,0.1856,0.1509,0.1507,0.1505,0.1504,0,0,0.1504,0.1525,0.1538,0.1563,0.1604,0.1654,0.1713,0.178,0.1846,0.1822,0.1815,0.1892,0.1974,0.1669,0.1636,0.1586,0.1799,0.1534,0.2172,0.2228,0.2277,0.2414,0.2156,0,0,0,0,0]},{"header":{"parameterUnit":"m.s-1","parameterCategory":2,"la1":30.2991,"la2":30.254,"lo1":-89.0895,"lo2":-89.0444,"dy":0.0017,"dx":0.0017,"nx":28,"ny":28,"refTime":"2024-07-15T03:00:00:Z","depth":"2","parameterNumber":3,"parameterNumberName":"V-component_of_CURRENTS"},"data":[0,0,0,0,0,0,0,0,0,0,0,0,0,0,0,0,0,0,0,0,0,0,0,0,0,0,0,0,0,0,0,0,0,0,0,0,0,0,0,0,0,0,0,0,0,0,0,0,0,0,0,0,0,0,0,0,0,0,0.024,0.0239,0,0.0181,0.018,0.0179,0.0101,0.0099,0.0098,0.0097,-0.0048,-0.0051,-0.0053,0,0,0,0,0,0,0,0,0,0,0,0,0,0.0237,0.0238,0.024,0.0239,0.0239,0.0181,0.018,0.0179,0.0101,0.0099,0.0098,0.0097,-0.0047,-0.005,-0.0054,0,0,0,0,0,0,0,0,0,0,0,0,0,0.0212,0.0238,0.024,0.0195,0.019,0.0181,0.018,0.0179,0.0101,0.0099,0.0098,0.0096,-0.0046,-0.005,-0.0054,-0.0049,0,0,-0.0067,-0.0069,0,0,0,0,0,0,0,0,0.0214,0.0212,0.0202,0.0198,0.0193,0.0149,0.0126,0.0099,0.0101,0.0132,0.0097,0.0095,0.0013,0.0004,-0.0006,-0.0055,-0.0062,-0.0068,-0.007,-0.0072,-0.0073,0,0,0,0,0,0,0,0.0215,0.0214,0.0214,0.0202,0.0196,0.0161,0.0156,0.012,0.0079,0.0129,0.0124,0.0122,0.0009,-0.0002,-0.0011,-0.0064,-0.0068,-0.0071,-0.0074,-0.0076,-0.0176,-0.0176,0,0,0,0,0,0,0.0232,0.0216,0.0216,0.0212,0.0202,0.0163,0.0157,0.0162,0.0081,0.0068,0.0124,0.0119,0.0006,-0.0005,-0.0016,-0.0053,-0.0072,-0.0076,-0.0079,-0.0176,-0.0176,-0.0176,0,0,0,0,0,0,0.0233,0.0233,0.0218,0.0214,0.021,0.0165,0.0172,0.0162,0.014,0.0078,0.0063,0.011,0.0004,-0.001,-0.0054,-0.0058,-0.0078,-0.0082,-0.0176,-0.0176,-0.0176,-0.0102,0,0,0,0,0,0,0.0233,0.0234,0.0243,0.0216,0.0211,0.0216,0.0173,0.0162,0.0143,0.0136,0.0061,0.0047,0.0002,-0.0047,-0.0058,-0.0064,-0.0085,-0.0175,-0.0176,-0.0176,-0.0105,-0.01,-0.0096,0,0,0,0,0,0.0233,0.0254,0.0244,0.0243,0.0225,0.0217,0.0212,0.0172,0.0144,0.0143,0.0088,0.0049,-0.0056,-0.005,-0.0063,-0.0071,-0.0175,-0.0176,-0.0176,-0.0107,-0.0101,-0.0096,0,0,0,0,0,0,0.0259,0.0248,0.0235,0.0252,0.0238,0.0205,0.0203,0.0176,0.0134,0.0117,0.0054,0.0036,-0.0004,-0.0045,-0.0036,-0.0101,-0.0125,-0.0128,-0.0068,-0.0063,-0.0059,-0.0031,-0.0089,0,0,0,0,0,0.0272,0.0283,0.0264,0.0279,0.0273,0.0238,0.0228,0.0201,0.0164,0.0143,0.0091,0.0033,-0.0011,-0.0042,-0.0085,-0.0116,-0.0151,-0.0133,-0.0128,-0.0124,-0.0111,-0.0179,-0.018,-0.0176,-0.0176,-0.0176,0,0,0.0289,0.0284,0.029,0.0285,0.0268,0.027,0.0227,0.0215,0.0208,0.0134,0.0102,0.005,-0.0014,-0.0051,-0.0074,-0.0089,-0.0139,-0.0124,-0.012,-0.0109,-0.0179,-0.018,-0.018,-0.0177,-0.0177,-0.0177,0,0,0.0327,0.0321,0.0338,0.033,0.0311,0.0292,0.0291,0.0254,0.0226,0.0198,0.0139,0.0087,0.0022,-0.0026,-0.0058,-0.0055,-0.0109,-0.0075,-0.0037,-0.0103,-0.0103,-0.0104,-0.0127,-0.013,-0.0079,-0.0078,-0.0078,0,0.0344,0.0366,0.0343,0.0352,0.0353,0.0306,0.0321,0.0293,0.0244,0.0229,0.0194,0.0098,0.0035,-0.0006,-0.0013,-0.0045,-0.0076,-0.0049,-0.0096,-0.0098,-0.01,-0.0123,-0.0128,-0.0075,-0.0075,-0.0076,-0.0076,0,0.0387,0.0404,0.0413,0.0413,0.041,0.0416,0.0381,0.0363,0.0323,0.0291,0.0242,0.016,0.0101,0.0068,0.0025,-0.0019,-0.0032,-0.0077,-0.0104,-0.0096,-0.0121,-0.0127,-0.007,-0.0071,-0.0072,-0.0073,0,0,0.0426,0.0442,0.0444,0.0464,0.0442,0.0451,0.0439,0.0425,0.0432,0.0354,0.0353,0.0249,0.0198,0.0159,0.009,0.0028,-0.002,-0.0027,-0.0032,-0.0038,-0.0135,-0.0171,-0.0182,-0.0078,-0.0079,-0.008,-0.0137,0,0.0466,0.0512,0.0501,0.0544,0.0569,0.0531,0.0539,0.0513,0.048,0.0466,0.0364,0.0328,0.0233,0.0205,0.0127,0.003,-0.0037,0.0002,-0.0151,-0.0155,-0.0181,-0.0192,-0.0197,-0.0252,-0.0143,-0.0144,-0.0145,0,0.0507,0.0537,0.0588,0.063,0.0636,0.0649,0.0664,0.0664,0.0624,0.0595,0.0528,0.0452,0.0359,0.0271,0.0096,0.0126,-0.0001,-0.0088,-0.0093,-0.0157,-0.0205,-0.025,-0.0268,-0.0157,-0.0156,-0.0155,-0.0154,0,0.0559,0.0601,0.065,0.0659,0.0689,0.0703,0.0716,0.07,0.0724,0.0673,0.0687,0.0551,0.0509,0.0323,0.0138,0.0106,-0.0035,-0.0109,-0.026,-0.0262,-0.0311,-0.0316,-0.0254,-0.0254,-0.0254,-0.0253,-0.0253,0,0.0616,0.0655,0.068,0.0709,0.078,0.077,0.0836,0.0827,0.0836,0.0886,0.0757,0.0775,0.0515,0.0403,0.0194,-0.0024,-0.0004,-0.0246,-0.0289,-0.0283,-0.0285,-0.0245,-0.0243,-0.0255,-0.0255,-0.0255,-0.0254,0,0.0674,0.0684,0.0749,0.079,0.0809,0.086,0.0928,0.0979,0.0974,0.1039,0.1025,0.0943,0.0789,0.0548,0.0282,0.0073,-0.0151,-0.0242,-0.0192,-0.023,-0.0349,-0.0342,-0.0434,-0.0436,-0.0438,-0.044,-0.0441,0,0.0715,0.075,0.0815,0.086,0.0882,0.0954,0.1013,0.1038,0.1102,0.1155,0.1201,0.1088,0.1011,0.0644,0.025,-0.0118,-0.0139,-0.0349,-0.0447,-0.034,-0.0372,-0.0363,-0.0355,-0.0469,-0.047,-0.0471,-0.0472,0,0.0793,0.0802,0.0852,0.0945,0.1012,0.1115,0.1201,0.1278,0.1324,0.1385,0.1461,0.1404,0.1038,0.0645,0.0146,-0.0094,-0.03,-0.0386,-0.0292,-0.0424,-0.0379,-0.0408,-0.0398,-0.0482,-0.0481,-0.048,-0.0479,-0.0479,0.0835,0.0886,0.0941,0.1031,0.1122,0.1261,0.136,0.1461,0.1588,0.1643,0.1597,0.1447,0.1,0.0283,-0.003,-0.0363,-0.0395,-0.0557,-0.0551,-0.0545,-0.0541,-0.0502,-0.0624,-0.0623,-0.0623,-0.0623,-0.0623,0,0.0879,0.0932,0.1026,0.114,0.1258,0.1296,0.1472,0.157,0.1727,0.1674,0.1658,0.1118,0.0699,0.0285,-0.0254,-0.0585,-0.0581,-0.0636,-0.0585,-0.0576,-0.0568,-0.0562,-0.0653,-0.0653,-0.0653,-0.0653,0,0,0.0898,0.0977,0.103,0.1225,0.1318,0.1483,0.159,0.1737,0.174,0.1633,0.1434,0.116,0.0647,0.0225,-0.0166,-0.0388,-0.039,-0.0418,-0.0379,-0.0265,-0.0251,-0.0527,-0.051,0,0,0,0,0]}],[{"header":{"parameterUnit":"m.s-1","parameterCategory":2,"la1":30.2991,"la2":30.254,"lo1":-89.0895,"lo2":-89.0444,"dy":0.0017,"dx":0.0017,"nx":28,"ny":28,"refTime":"2024-07-15T03:00:00:Z","depth":"4","parameterNumber":2,"parameterNumberName":"U-component_of_CURRENTS"},"data":[0,0,0,0,0,0,0,0,0,0,0,0,0,0,0,0,0,0,0,0,0,0,0,0,0,0,0,0,0,0,0,0,0,0,0,0,0,0,0,0,0,0,0,0,0,0,0,0,0,0,0,0,0,0,0,0,0,0,0.0573,0.0572,0,0.0597,0.0598,0.0599,0.0668,0.0669,0.067,0.067,0.0713,0.0713,0.0714,0,0,0,0,0,0,0,0,0,0,0,0,0,0.0559,0.0559,0.0573,0.0572,0.0572,0.0597,0.0598,0.0599,0.0668,0.0669,0.067,0.0671,0.0713,0.0713,0.0714,0,0,0,0,0,0,0,0,0,0,0,0,0,0.0581,0.056,0.0573,0.0602,0.0604,0.0596,0.0598,0.0599,0.0668,0.0669,0.067,0.0671,0.0713,0.0713,0.0714,0.07,0,0,0.0717,0.0717,0,0,0,0,0,0,0,0,0.058,0.0583,0.0598,0.06,0.0602,0.0622,0.0608,0.0631,0.0668,0.0654,0.067,0.0671,0.0677,0.0681,0.0697,0.0702,0.0704,0.0717,0.0717,0.0718,0.0718,0,0,0,0,0,0,0,0.0578,0.0582,0.0592,0.0597,0.06,0.0603,0.0609,0.0613,0.0668,0.0655,0.0658,0.0645,0.068,0.0696,0.0698,0.0705,0.0717,0.0717,0.0718,0.0718,0.0791,0.0792,0,0,0,0,0,0,0.0556,0.0581,0.0591,0.0592,0.0582,0.0602,0.0609,0.0623,0.0668,0.0672,0.0644,0.0648,0.0694,0.0697,0.07,0.077,0.0718,0.0718,0.0719,0.079,0.0791,0.0793,0,0,0,0,0,0,0.0556,0.0558,0.059,0.0577,0.058,0.0601,0.0616,0.0622,0.0684,0.0657,0.0665,0.0702,0.0695,0.0699,0.0732,0.0769,0.0719,0.0719,0.0788,0.079,0.0792,0.0857,0,0,0,0,0,0,0.0557,0.0559,0.0576,0.0577,0.058,0.0605,0.0614,0.0622,0.0666,0.0674,0.0708,0.0711,0.0696,0.0731,0.0733,0.0769,0.072,0.0786,0.0789,0.0792,0.0853,0.0861,0.0868,0,0,0,0,0,0.0557,0.0562,0.0577,0.0578,0.0599,0.0604,0.0609,0.0631,0.0669,0.0694,0.0719,0.0712,0.075,0.0733,0.0735,0.0772,0.0785,0.0788,0.0791,0.0849,0.0859,0.0867,0,0,0,0,0,0,0.056,0.0569,0.0585,0.0595,0.0609,0.0613,0.0631,0.066,0.0705,0.0724,0.0726,0.0729,0.076,0.0764,0.0745,0.0801,0.0768,0.0772,0.0812,0.0821,0.0828,0.083,0.0721,0,0,0,0,0,0.0566,0.0584,0.0589,0.0601,0.0612,0.064,0.0653,0.0672,0.0695,0.072,0.074,0.0762,0.0768,0.0796,0.0786,0.0832,0.081,0.0859,0.0866,0.0872,0.0876,0.0866,0.0872,0.0804,0.0804,0.0804,0,0,0.0566,0.0574,0.0584,0.0604,0.0624,0.0646,0.0656,0.0684,0.0716,0.0713,0.0779,0.0777,0.0779,0.081,0.0829,0.0829,0.0883,0.0877,0.0882,0.0882,0.087,0.0876,0.0882,0.0806,0.0805,0.0805,0,0,0.0568,0.0594,0.0614,0.0631,0.0655,0.0668,0.069,0.0722,0.0759,0.0806,0.0802,0.0824,0.0866,0.0859,0.0866,0.0915,0.0902,0.0936,0.1003,0.0993,0.0998,0.1003,0.099,0.0992,0.0966,0.0966,0.0966,0,0.0574,0.06,0.0618,0.0642,0.0659,0.069,0.0721,0.0753,0.0794,0.0818,0.0836,0.088,0.088,0.0908,0.0935,0.0929,0.0931,0.0968,0.1002,0.1005,0.1009,0.0994,0.0996,0.0969,0.0969,0.0969,0.0968,0,0.0587,0.062,0.0633,0.0682,0.0706,0.0733,0.0766,0.0802,0.0854,0.0884,0.0931,0.0933,0.0967,0.0974,0.0981,0.1016,0.1011,0.0989,0.0976,0.1019,0.1002,0.1002,0.0974,0.0973,0.0972,0.0971,0,0,0.0574,0.0634,0.0644,0.0676,0.0734,0.075,0.0802,0.0848,0.0888,0.094,0.0994,0.102,0.1045,0.1053,0.1059,0.1071,0.1097,0.1073,0.107,0.1055,0.1093,0.1081,0.108,0.1098,0.1099,0.1099,0.1073,0,0.0589,0.0637,0.0668,0.0726,0.0757,0.0796,0.0842,0.0887,0.0936,0.0987,0.1014,0.1067,0.1073,0.1111,0.1121,0.1093,0.1103,0.1106,0.1058,0.1056,0.1035,0.1082,0.1101,0.1073,0.1073,0.1074,0.1074,0,0.0593,0.0629,0.0687,0.0754,0.0775,0.082,0.0887,0.0934,0.0998,0.1037,0.1095,0.1127,0.1172,0.1164,0.1157,0.1173,0.1151,0.1122,0.1119,0.1085,0.1045,0.102,0.1074,0.1074,0.1074,0.1074,0.1074,0,0.0566,0.0638,0.0687,0.0712,0.0792,0.0835,0.0893,0.0961,0.1008,0.1091,0.1131,0.118,0.122,0.1204,0.1189,0.119,0.1155,0.1131,0.1087,0.1085,0.1071,0.1067,0.1111,0.1111,0.1111,0.1111,0.1111,0,0.0558,0.0594,0.0686,0.0714,0.0779,0.085,0.0924,0.0972,0.1059,0.1104,0.1183,0.1203,0.1239,0.1236,0.1202,0.1159,0.1168,0.1104,0.1083,0.11,0.11,0.1072,0.1067,0.111,0.111,0.111,0.1111,0,0.0513,0.0571,0.0628,0.0732,0.0769,0.0826,0.095,0.099,0.1084,0.114,0.1184,0.1246,0.1248,0.1251,0.121,0.1177,0.1124,0.1098,0.1127,0.1105,0.1055,0.1055,0.1052,0.1052,0.1052,0.1051,0.1051,0,0.0493,0.0519,0.0631,0.0672,0.0731,0.0824,0.0877,0.0992,0.1029,0.1132,0.114,0.1207,0.1228,0.1158,0.1162,0.1118,0.1098,0.1082,0.1071,0.1073,0.1052,0.1052,0.1053,0.105,0.105,0.105,0.105,0,0.0449,0.0496,0.0544,0.0633,0.0705,0.0765,0.0857,0.088,0.0989,0.1077,0.1097,0.1129,0.1126,0.1118,0.1117,0.1066,0.1105,0.1077,0.1077,0.1067,0.107,0.105,0.1051,0.1048,0.1049,0.1049,0.1049,0,0.0415,0.0435,0.0507,0.0578,0.0662,0.0702,0.075,0.0806,0.0868,0.0992,0.0978,0.1032,0.1093,0.1087,0.1055,0.1054,0.1037,0.101,0.1013,0.1015,0.1021,0.1021,0.0974,0,0,0,0,0,0.0385,0.0401,0.0449,0.0523,0.0602,0.065,0.0729,0.0771,0.0864,0.0865,0.0937,0.0935,0.0965,0.0981,0.097,0.1024,0.1023,0.1008,0.0989,0.104,0.1042,0.1056,0,0,0,0,0,0,0.0362,0.0402,0.042,0.0465,0.0508,0.0576,0.0624,0.0676,0.0683,0.0786,0.0792,0.0901,0.0915,0.0958,0.0954,0.0965,0.0943,0.1057,0.1056,0.1039,0.1041,0.1042,0.1057,0,0,0,0,0]},{"header":{"parameterUnit":"m.s-1","parameterCategory":2,"la1":30.2991,"la2":30.254,"lo1":-89.0895,"lo2":-89.0444,"dy":0.0017,"dx":0.0017,"nx":28,"ny":28,"refTime":"2024-07-15T03:00:00:Z","depth":"4","parameterNumber":3,"parameterNumberName":"V-component_of_CURRENTS"},"data":[0,0,0,0,0,0,0,0,0,0,0,0,0,0,0,0,0,0,0,0,0,0,0,0,0,0,0,0,0,0,0,0,0,0,0,0,0,0,0,0,0,0,0,0,0,0,0,0,0,0,0,0,0,0,0,0,0,0,-0.0106,-0.0106,0,-0.0168,-0.0169,-0.0171,-0.0223,-0.0223,-0.0223,-0.0223,-0.0316,-0.0319,-0.0321,0,0,0,0,0,0,0,0,0,0,0,0,0,-0.008,-0.008,-0.0106,-0.0106,-0.0106,-0.0168,-0.0169,-0.0171,-0.0223,-0.0223,-0.0223,-0.0223,-0.0315,-0.0319,-0.0322,0,0,0,0,0,0,0,0,0,0,0,0,0,-0.0119,-0.008,-0.0106,-0.0133,-0.0136,-0.0168,-0.017,-0.0172,-0.0223,-0.0223,-0.0223,-0.0223,-0.0314,-0.0318,-0.0322,-0.0352,0,0,-0.0334,-0.0336,0,0,0,0,0,0,0,0,-0.0116,-0.0121,-0.0129,-0.0132,-0.0134,-0.0181,-0.0194,-0.0231,-0.0223,-0.0199,-0.0223,-0.0222,-0.0269,-0.0276,-0.03,-0.0356,-0.036,-0.0335,-0.0337,-0.0339,-0.034,0,0,0,0,0,0,0,-0.0114,-0.0118,-0.0139,-0.0129,-0.0132,-0.0158,-0.0164,-0.0202,-0.0241,-0.0201,-0.0203,-0.0197,-0.0271,-0.0296,-0.0302,-0.0361,-0.0335,-0.0338,-0.0341,-0.0342,-0.0506,-0.0508,0,0,0,0,0,0,-0.0088,-0.0116,-0.0136,-0.014,-0.0116,-0.0158,-0.0165,-0.0173,-0.024,-0.0248,-0.0197,-0.0199,-0.0289,-0.0298,-0.0306,-0.0377,-0.0339,-0.0342,-0.0345,-0.0504,-0.0506,-0.0508,0,0,0,0,0,0,-0.0087,-0.009,-0.0134,-0.0122,-0.0128,-0.0158,-0.0166,-0.0174,-0.0218,-0.0235,-0.0245,-0.0234,-0.0289,-0.03,-0.0355,-0.0379,-0.0344,-0.0348,-0.0502,-0.0505,-0.0507,-0.0499,0,0,0,0,0,0,-0.0087,-0.009,-0.0096,-0.0121,-0.0128,-0.0155,-0.0166,-0.0175,-0.0209,-0.0213,-0.027,-0.0277,-0.029,-0.0349,-0.0358,-0.0384,-0.0351,-0.0499,-0.0503,-0.0506,-0.0496,-0.0501,-0.0505,0,0,0,0,0,-0.0086,-0.0085,-0.0097,-0.0099,-0.0133,-0.0155,-0.0163,-0.0188,-0.0211,-0.0229,-0.0272,-0.0277,-0.0379,-0.0353,-0.0364,-0.0392,-0.0497,-0.0502,-0.0506,-0.0494,-0.05,-0.0505,0,0,0,0,0,0,-0.0079,-0.0091,-0.0104,-0.0109,-0.0132,-0.0161,-0.0174,-0.0203,-0.0255,-0.0265,-0.0298,-0.0309,-0.0361,-0.0389,-0.0359,-0.0454,-0.0441,-0.0448,-0.0429,-0.0434,-0.0438,-0.0412,-0.0354,0,0,0,0,0,-0.0078,-0.0085,-0.0103,-0.0111,-0.0121,-0.0159,-0.0175,-0.0196,-0.0233,-0.0258,-0.0297,-0.0346,-0.0387,-0.0419,-0.0451,-0.051,-0.0506,-0.0539,-0.0543,-0.0546,-0.0535,-0.055,-0.0553,-0.0523,-0.0523,-0.0523,0,0,-0.0076,-0.0084,-0.0088,-0.011,-0.0133,-0.0148,-0.0172,-0.0197,-0.0218,-0.0259,-0.0312,-0.0355,-0.0404,-0.0456,-0.0485,-0.0485,-0.0556,-0.0552,-0.0554,-0.0541,-0.0555,-0.0557,-0.0559,-0.0526,-0.0525,-0.0525,0,0,-0.0068,-0.0087,-0.0089,-0.0107,-0.0131,-0.0151,-0.0163,-0.0206,-0.0235,-0.029,-0.0321,-0.0374,-0.0455,-0.0482,-0.051,-0.0563,-0.0568,-0.0597,-0.0606,-0.0621,-0.0622,-0.0623,-0.0623,-0.0624,-0.0611,-0.0611,-0.0611,0,-0.0065,-0.0072,-0.0094,-0.0102,-0.0112,-0.0154,-0.0165,-0.0198,-0.0256,-0.028,-0.0304,-0.0418,-0.0457,-0.0514,-0.0541,-0.0566,-0.0579,-0.0577,-0.0622,-0.0623,-0.0624,-0.0623,-0.0624,-0.0611,-0.0611,-0.0611,-0.0611,0,-0.0058,-0.0069,-0.0073,-0.0095,-0.0113,-0.0129,-0.0163,-0.0194,-0.0242,-0.028,-0.035,-0.0412,-0.0478,-0.0514,-0.0549,-0.0596,-0.0602,-0.061,-0.0596,-0.0625,-0.0624,-0.0625,-0.0611,-0.0611,-0.0611,-0.0611,0,0,-0.0039,-0.0062,-0.0064,-0.0074,-0.0112,-0.0124,-0.0151,-0.0188,-0.0211,-0.0286,-0.0326,-0.0419,-0.0466,-0.0501,-0.0556,-0.0588,-0.0614,-0.0619,-0.0619,-0.0594,-0.0646,-0.0631,-0.063,-0.0639,-0.064,-0.064,-0.064,0,-0.0031,-0.0033,-0.0051,-0.0065,-0.0074,-0.0109,-0.013,-0.017,-0.022,-0.0267,-0.0341,-0.0403,-0.0459,-0.0505,-0.0546,-0.0598,-0.0619,-0.0613,-0.0642,-0.0642,-0.0605,-0.0632,-0.0641,-0.0641,-0.0641,-0.0642,-0.0642,0,-0.002,-0.0023,-0.0026,-0.0049,-0.0057,-0.007,-0.0104,-0.0131,-0.0194,-0.0235,-0.0307,-0.0373,-0.0449,-0.0484,-0.0568,-0.057,-0.0607,-0.0639,-0.0639,-0.0624,-0.0629,-0.061,-0.0644,-0.0644,-0.0644,-0.0643,-0.0643,0,0.0004,-0.0008,-0.0008,-0.0017,-0.0046,-0.0053,-0.0075,-0.0125,-0.0143,-0.0218,-0.0243,-0.0344,-0.0394,-0.0461,-0.0555,-0.0568,-0.0626,-0.064,-0.0648,-0.0647,-0.066,-0.0659,-0.067,-0.067,-0.067,-0.067,-0.067,0,0.0018,0.0014,0.0006,0.0004,0.0004,-0.0031,-0.0042,-0.0074,-0.0116,-0.0131,-0.0231,-0.0264,-0.0395,-0.0458,-0.0533,-0.0597,-0.0605,-0.0643,-0.0648,-0.0659,-0.0658,-0.066,-0.0659,-0.067,-0.067,-0.067,-0.067,0,0.0032,0.0028,0.0029,0.0016,0.0015,0.001,-0.0007,-0.0015,-0.0058,-0.0075,-0.0099,-0.0205,-0.0296,-0.0405,-0.0509,-0.0556,-0.0622,-0.0634,-0.0628,-0.0633,-0.0634,-0.0633,-0.0638,-0.0637,-0.0637,-0.0636,-0.0636,0,0.0035,0.0042,0.0047,0.0058,0.0052,0.0049,0.005,0.0015,0.0018,-0.0034,-0.0033,-0.0135,-0.0212,-0.0334,-0.0462,-0.0583,-0.0601,-0.062,-0.0643,-0.0628,-0.0632,-0.0632,-0.0631,-0.0635,-0.0635,-0.0635,-0.0635,0,0.0043,0.0049,0.0055,0.0086,0.0097,0.0106,0.0111,0.0123,0.0093,0.0065,0.0027,-0.0073,-0.0168,-0.0311,-0.041,-0.0499,-0.0607,-0.0616,-0.0618,-0.064,-0.0625,-0.063,-0.063,-0.0634,-0.0634,-0.0634,-0.0634,0,0.0052,0.0061,0.0084,0.011,0.013,0.0152,0.0149,0.0157,0.0152,0.0113,0.0102,-0.0029,-0.0112,-0.0266,-0.0357,-0.0451,-0.0476,-0.049,-0.0499,-0.0502,-0.0477,-0.044,-0.039,0,0,0,0,0,0.0065,0.0082,0.0105,0.0133,0.0157,0.0169,0.0188,0.0187,0.018,0.0173,0.0141,0.0051,-0.0113,-0.0203,-0.029,-0.0362,-0.0501,-0.0466,-0.0524,-0.0625,-0.0627,-0.0622,0,0,0,0,0,0,0.0072,0.0099,0.0109,0.0153,0.0176,0.02,0.021,0.0205,0.0204,0.0184,0.0094,0.0049,-0.012,-0.0059,-0.0286,-0.032,-0.0362,-0.055,-0.0551,-0.0624,-0.0626,-0.0627,-0.0623,0,0,0,0,0]}]]